Flag for Canada Weather past 2 weeks in Eureka, Nunavut, Canada

Now
-4 °F

Light snow. Partly sunny.


Feels Like: -25 °F
Forecast: -6 / 4 °F
Wind: 15 mph from Southeast

Location: Eureka

Current Time: Apr 21, 2015 at 11:56:44 PM

Latest Report: Apr 21, 2015 at 10:00 PM


Visibility: 10 mi

Pressure: 30.42 "Hg

Humidity: 71%

Dew point: -11 °F

Location of EurekaLocation

Historic Weather in Eureka — Graph

°F

Eureka temperature yesterday

Maximum temperature yesterday: -8 °F (at 2:00 PM)
Minimum temperature yesterday: -17 °F (at 4:00 AM)
Average temperature yesterday: -11 °F

Past Weeks' High & Low Weather Summary

 TemperatureHumidityPressure
High1 °F (Apr 18, 2:00 PM)78% (Apr 18, 1:00 PM)30.42 "Hg (Apr 18, 1:00 PM)
Low-40 °F (Apr 11, 2:00 AM)40% (Apr 16, 12:00 PM)29.16 "Hg (Apr 15, 6:00 PM)
Average-19 °F61%29.70 "Hg
* Reported Apr 6 10:00 PM — Apr 21 10:00 PM, Eureka, Weather by CustomWeather, © 2015

Note: Actual official high and low records may vary slightly from our data, if they occured in-between our weather recording intervals... More about our weather records

Advertising

Eureka weather history for previous 24 hours

 ConditionsComfort  
Time TempWeatherWind HumidityBarometerVisibility
10:00 PM
Tue, Apr 21
-4 °FLight snow. Partly sunny.15 mph71%30.42 "Hg10 mi
9:00 PM-4 °FLight snow. Broken clouds.16 mph71%30.40 "Hg10 mi
8:00 PM-2 °FSnow flurries. Passing clouds.17 mph71%30.40 "Hg6 mi
7:00 PM-2 °FPassing clouds.16 mph65%30.38 "Hg7 mi
6:00 PM-2 °FPassing clouds.14 mph65%30.36 "Hg15 mi
5:00 PM-2 °FPartly sunny.14 mph71%30.34 "Hg15 mi
4:00 PM-2 °FScattered clouds.16 mph71%30.32 "Hg15 mi
3:00 PM-2 °FScattered clouds.17 mph71%30.31 "Hg7 mi
2:00 PM-4 °FMostly cloudy.18 mph71%30.29 "Hg8 mi
1:00 PM-6 °FMore clouds than sun.17 mph77%30.28 "Hg15 mi
12:00 PM-6 °FBroken clouds.16 mph70%30.26 "Hg15 mi
11:00 AM-8 °FScattered clouds.15 mph77%30.25 "Hg15 mi
10:00 AM-13 °FPassing clouds.14 mph69%30.24 "Hg15 mi
9:00 AM-15 °FScattered clouds.12 mph69%30.23 "Hg15 mi
8:00 AM-13 °FPassing clouds.8 mph69%30.21 "Hg15 mi
7:00 AM-15 °FPassing clouds.3 mph69%30.20 "Hg15 mi
6:00 AM-13 °FPassing clouds.No wind69%30.18 "Hg15 mi
5:00 AM-13 °FPassing clouds.2 mph69%30.17 "Hg15 mi
4:00 AM-11 °FPassing clouds.No wind70%30.15 "Hg15 mi
3:00 AM-13 °FScattered clouds.5 mph63%30.14 "Hg15 mi
2:00 AM-13 °FPartly sunny.8 mph69%30.12 "Hg15 mi
1:00 AM-13 °FOvercast.No wind76%30.10 "Hg15 mi
Weather by CustomWeather, © 2015

See weather overviewHow to use our weather pages